Location: ?????????
(38.5999°N, 22.7695°E)
Time: 09:34:14
(UTC+00:00)

Cosmos 1825 - Pass Details

Date: 23 May 2024
Orbit: 438 x 442 km, 82.5° (Epoch: 23 June)

Event Time Altitude Azimuth Distance (km) Brightness Sun altitude
Exits shadow 02:34:43 - 240° (WSW) 1,638 4.0 -6.9°
Reaches altitude 10° 02:35:00 10° 243° (WSW) 1,560 4.0 -6.9°
Maximum altitude 02:37:16 17° 285° (WNW) 1,213 3.7 -6.5°
Drops below altitude 10° 02:39:34 10° 328° (NNW) 1,573 4.7 -6.1°
Sets 02:42:12 0° 349° (N) 2,452 5.9 -5.7°
